SVYATOBOR 1 (RS60S)

Last updated on Wed Feb 18 2026 00:03:11 GMT+0000 (Coordinated Universal Time)

1 57187U 23091X 26048.61599350 .00010905 00000+0 44753-3 0 9991 2 57187 97.5254 111.8738 0010740 146.9338 213.2573 15.24355415146084
UTC large
Height (km)
Speed (km/s)
/
Latitude / Longitude
Inclination (degrees)
Orbital Period (minutes)
Azimuth
Elevation
Range (km)
Doppler Factor

Next 0 passes for location: London (51.5072 / 0.1276)

Sorry there are no passes over London.